Location: Poughquag
(41.6090°N, 73.6820°W)
Time: 21:56:15
(UTC-05:00)

N. Korean satellite - Pass Details

Date: 25 January 2021
Orbit: 451 x 503 km, 97.2° (Epoch: 24 February)

Event Time Altitude Azimuth Distance (km) Brightness Sun altitude
Rises 06:00:21 0° 360° (N) 2,504 10.0 -13.6°
Reaches altitude 10° 06:02:37 10° 348° (NNW) 1,615 9.0 -13.2°
Maximum altitude 06:05:35 27° 289° (WNW) 910 7.3 -12.7°
Drops below altitude 10° 06:08:30 10° 230° (SW) 1,587 8.8 -12.1°
Sets 06:10:42 0° 217° (SW) 2,450 9.9 -11.7°
